Flag for U.S.A. Weather past 2 weeks in Stillwater, Minnesota, U.S.A.

Now
57 °F

Broken clouds.


Feels Like: 53 °F
Forecast: 37 / 56 °F
Wind: 20 mph from Southeast

Location: St. Paul Downtown Holman Field

Current Time: Oct 22, 2014 at 5:51:48 PM

Latest Report: Oct 22, 2014 at 4:53 PM


Visibility: 10 mi

Pressure: 30.07 "Hg

Humidity: 58%

Dew point: 42 °F

Location of StillwaterLocation

Historic Weather in Stillwater — Graph

°F

Stillwater temperature yesterday

Maximum temperature yesterday: 57 °F (at 2:53 PM)
Minimum temperature yesterday: 37 °F (at 6:53 AM)
Average temperature yesterday: 47 °F

Past Weeks' High & Low Weather Summary

 TemperatureHumidityPressure
High71 °F (Oct 16, 2:53 PM)100% (Oct 11, 5:53 AM)30.30 "Hg (Oct 11, 5:53 AM)
Low33 °F (Oct 10, 6:53 AM)31% (Oct 15, 3:53 PM)29.56 "Hg (Oct 16, 4:53 PM)
Average49 °F69%30.00 "Hg
* Reported Oct 7 3:53 PM — Oct 22 3:53 PM, Stillwater, Weather by CustomWeather, © 2014

Note: Actual official high and low records may vary slightly from our data, if they occured in-between our weather recording intervals... More about our weather records

Advertising

Stillwater weather history for previous 24 hours

 ConditionsComfort  
Time TempWeatherWind HumidityBarometerVisibility
3:53 PM
Oct 22
59 °FSunny.13 mph54%30.09 "Hg10 mi
2:53 PM59 °FPartly sunny.21 mph51%30.11 "Hg10 mi
1:53 PM55 °FOvercast.20 mph59%30.14 "Hg10 mi
12:53 PM54 °FMore clouds than sun.16 mph62%30.16 "Hg10 mi
11:53 AM52 °FOvercast.17 mph64%30.19 "Hg10 mi
10:53 AM50 °FPartly sunny.15 mph68%30.21 "Hg10 mi
9:53 AM46 °FPassing clouds.16 mph73%30.21 "Hg10 mi
8:53 AM42 °FSunny.17 mph82%30.23 "Hg10 mi
7:53 AM41 °FClear.10 mph86%30.23 "Hg10 mi
6:53 AM41 °FClear.13 mph86%30.24 "Hg10 mi
5:53 AM41 °FClear.13 mph86%30.23 "Hg10 mi
4:53 AM42 °FClear.15 mph82%30.22 "Hg10 mi
3:53 AM43 °FClear.16 mph79%30.21 "Hg10 mi
2:53 AM44 °FClear.14 mph76%30.21 "Hg10 mi
1:53 AM45 °FClear.12 mph76%30.20 "Hg10 mi
12:53 AM46 °FClear.10 mph73%30.19 "Hg10 mi
11:53 PM
Oct 21
46 °FClear.10 mph73%30.20 "Hg10 mi
10:53 PM47 °FClear.9 mph74%30.21 "Hg10 mi
9:53 PM47 °FClear.7 mph74%30.20 "Hg10 mi
8:53 PM48 °FClear.3 mph71%30.19 "Hg10 mi
7:53 PM51 °FClear.8 mph63%30.18 "Hg10 mi
6:53 PM52 °FSunny.9 mph61%30.17 "Hg10 mi
5:53 PM54 °FSunny.13 mph57%30.16 "Hg10 mi
Weather by CustomWeather, © 2014

See weather overviewHow to use our weather pages